Wind_Speed
13 13 13 13 14 14 14 14 13 13 12 11 11 9 9 8 7 7 5 4 3 2 2 2 3 4 4 5 5 5 7 8 8 8 8 9 10 10 11 11 11 12 12
10 11 12 13 13 13 13 13 13 13 12 12 11 11 10 9 8 7 6 5 4 3 3 3 2 3 4 4 5 6 7 8 8 9 9 10 11 11 12 12 12 12 13
9 9 10 11 11 12 12 12 12 12 12 12 11 11 11 10 9 8 7 6 5 4 4 4 3 3 4 5 6 7 7 8 9 10 10 11 12 12 13 14 14 14 14
8 8 9 9 10 11 11 11 11 11 11 12 11 11 11 11 10 10 9 6 6 6 5 5 5 5 5 6 7 8 8 8 9 11 12 12 13 13 14 15 15 16 16
7 7 8 8 9 9 10 10 10 10 10 11 11 11 11 10 10 10 10 8 7 7 6 6 7 7 6 6 7 8 8 8 9 10 12 13 14 15 15 16 17 18 18
7 7 8 8 8 8 8 9 10 9 9 10 10 10 10 10 9 9 9 9 8 8 8 7 7 7 7 7 8 8 8 9 10 10 11 13 14 15 16 16 17 18 18
8 8 8 8 7 7 8 9 9 9 8 9 10 10 10 10 9 9 9 9 9 8 8 8 9 9 8 8 9 9 9 9 10 11 12 13 14 15 16 17 18 18 19
10 9 9 9 8 8 8 8 9 9 9 9 9 9 9 9 9 9 10 10 10 10 9 9 9 9 9 9 9 10 10 11 11 11 12 13 14 15 16 17 18 19 20
12 11 11 10 10 9 9 9 8 9 9 9 9 9 9 9 10 10 11 11 12 11 11 10 10 10 11 10 10 11 11 12 12 13 13 14 15 16 16 17 18 18 19
14 14 13 12 11 10 10 9 9 9 10 10 10 10 10 10 10 11 12 12 12 12 13 12 11 11 11 11 11 11 11 12 13 13 14 15 15 16 17 18 18 19 19
16 15 14 13 12 11 11 10 10 10 11 11 11 11 10 10 11 12 13 13 13 13 13 13 13 12 11 12 12 12 13 14 14 14 15 16 17 18 18 18 19 20 20
18 18 16 16 15 14 13 13 12 12 12 12 12 12 12 12 13 14 14 14 14 14 14 14 14 13 13 14 14 14 15 15 15 16 17 17 17 18 19 19 20 20 20
20 20 19 18 17 16 16 15 15 15 14 14 14 14 14 14 15 15 15 15 15 15 15 15 15 15 14 14 14 14 15 15 16 16 17 17 18 19 19 20 20 20 21
23 22 22 21 20 19 18 18 18 17 17 16 16 15 16 16 17 17 17 16 16 16 16 17 17 17 16 15 15 15 15 16 17 17 18 18 18 19 19 20 20 20 21
25 25 25 24 23 22 22 21 20 20 20 19 18 18 18 18 18 18 18 18 17 18 18 18 18 18 17 17 17 17 17 18 18 19 19 20 20 20 20 21 21 21 22
28 28 27 27 26 25 24 24 24 23 22 22 21 21 20 21 21 20 20 20 20 20 20 20 20 19 19 19 19 19 20 20 21 21 22 21 21 22 22 22 22 22 23
30 30 30 29 29 28 28 27 27 26 26 25 24 23 23 23 23 23 24 23 22 23 23 22 22 22 22 21 21 21 22 22 22 23 23 22 22 23 23 24 24 24 24
33 33 32 32 31 31 31 31 30 28 28 28 27 27 26 26 26 27 26 26 26 25 24 24 24 24 24 24 24 24 24 24 24 24 25 25 24 24 25 25 25 25 25
35 35 35 35 35 35 34 33 32 31 31 30 30 30 30 29 29 29 29 28 27 26 26 26 26 26 26 27 26 26 26 26 27 27 28 27 27 27 27 27 26 27 27
38 37 37 37 38 38 36 35 34 34 33 32 33 33 33 32 31 30 30 29 29 29 29 28 28 28 28 28 28 27 28 28 28 29 29 29 29 29 29 28 28 28 28
39 39 39 39 40 40 39 38 37 36 36 36 36 36 36 35 34 33 33 32 32 31 31 30 30 29 29 29 29 29 29 30 31 31 31 31 31 30 29 29 29 29 29
40 41 41 42 42 42 41 41 41 40 40 39 39 39 38 38 37 36 35 35 34 34 33 32 31 31 30 29 29 30 31 32 33 33 33 33 32 30 30 30 30 30 30
41 42 42 42 43 43 43 44 43 43 42 42 42 42 41 41 40 39 38 37 35 34 34 33 32 32 31 30 30 31 33 34 35 35 35 34 32 31 31 31 32 32 33
41 42 42 42 42 43 43 43 43 43 43 43 43 43 43 42 41 41 40 39 37 35 34 34 34 34 32 32 32 33 33 34 35 36 35 34 33 33 33 33 33 34 34
42 43 43 43 43 43 43 43 43 43 43 44 45 46 43 41 41 40 40 39 37 36 36 36 35 35 34 34 35 36 35 35 35 36 36 35 35 35 35 35 35 35 35
43 43 44 44 44 44 44 44 45 45 45 45 46 46 45 44 43 44 42 39 37 37 38 38 38 36 35 36 36 37 37 37 37 36 35 35 35 35 36 36 36 36 37
Wind_Direction
25 27 28 30 32 33 33 32 33 32 32 31 30 32 31 31 30 27 29 27 10 348 323 280 245 243 249 254 257 258 261 258 255 256 261 267 268 268 267 269 272 273 272
16 19 20 22 26 29 30 30 31 30 29 30 30 32 33 30 25 25 23 24 15 353 341 323 287 268 262 261 265 265 264 266 262 263 267 270 270 271 270 272 276 278 280
3 6 10 14 19 24 26 26 26 27 27 27 29 31 30 26 24 22 18 18 19 7 354 338 327 304 288 283 282 275 273 274 270 269 271 273 274 273 274 274 277 277 279
349 350 357 4 9 14 18 20 20 21 22 23 25 25 25 25 25 23 18 15 15 15 9 355 346 326 313 306 299 295 287 283 278 274 273 274 277 278 278 280 278 278 278
331 337 343 348 356 2 6 9 10 12 16 17 18 20 20 19 20 21 20 19 16 14 2 353 347 340 326 318 319 308 292 286 286 284 280 277 278 278 281 283 283 282 281
310 319 327 332 341 349 354 359 1 2 7 11 11 11 13 16 19 19 13 13 11 6 0 355 347 338 333 327 323 318 307 297 293 293 291 287 283 282 282 284 287 289 287
298 305 311 316 322 330 338 350 354 355 355 1 5 8 9 11 12 12 10 5 358 356 353 350 342 334 331 328 325 322 316 307 302 299 295 294 290 287 286 286 288 290 289
286 293 296 301 305 313 322 334 343 349 351 352 357 0 1 1 1 0 360 357 350 345 340 338 335 332 327 321 322 320 316 311 305 302 299 298 295 293 291 288 288 287 287
278 283 286 293 295 301 305 314 327 336 343 344 343 346 347 348 350 349 347 348 347 343 338 330 323 320 320 318 318 319 317 313 308 302 300 298 297 296 295 294 292 291 289
271 276 278 283 287 292 295 299 310 321 327 334 333 328 332 334 337 341 339 338 340 339 339 333 322 316 316 315 313 316 320 318 313 310 307 304 302 300 298 297 294 294 294
265 272 274 277 280 284 287 290 298 307 315 318 322 322 322 324 326 328 330 330 331 333 333 332 327 317 313 312 309 311 315 316 312 308 307 306 304 302 302 300 297 295 294
258 264 268 272 272 274 279 283 289 295 301 307 311 315 317 315 317 317 317 319 320 321 321 322 322 316 310 306 307 308 311 313 312 309 307 304 304 303 301 300 300 299 298
253 258 261 265 267 268 271 276 280 285 291 297 301 306 309 308 309 309 309 309 311 314 314 313 313 315 313 309 307 306 308 311 311 311 310 307 305 304 302 301 301 300 300
253 256 258 262 265 266 269 272 275 280 285 289 293 297 300 302 302 304 304 303 303 305 307 307 307 307 308 308 305 304 306 309 310 310 310 309 308 307 306 304 303 302 301
253 256 258 260 262 264 266 268 271 275 280 283 287 291 294 297 299 299 299 298 298 299 300 301 302 302 302 303 302 302 304 308 310 310 310 311 311 310 307 305 304 303 301
251 254 256 257 259 261 263 266 269 271 273 277 281 287 292 293 294 293 292 292 294 294 295 296 295 295 297 298 298 298 300 304 306 308 309 309 310 311 309 306 304 303 303
252 253 255 256 257 260 262 266 269 271 273 277 280 283 287 290 290 290 289 288 289 290 291 293 291 289 291 293 296 296 296 298 301 302 304 305 306 307 308 306 305 303 302
252 253 254 255 256 258 261 264 265 268 270 273 276 279 283 285 288 289 289 287 288 289 289 293 294 291 290 291 293 296 296 295 296 298 300 301 301 302 304 303 302 301 301
251 252 253 254 255 257 259 261 264 266 269 270 273 276 278 282 284 285 287 287 285 287 287 289 291 290 289 290 289 291 293 293 293 294 296 298 298 299 300 300 300 299 298
252 253 253 254 255 256 258 260 263 264 267 269 271 273 276 278 279 281 283 284 284 285 286 288 289 289 288 287 285 286 289 289 291 293 294 296 296 295 296 296 297 298 298
254 254 255 254 254 255 257 259 261 263 264 265 268 271 273 274 276 278 280 282 284 285 284 284 285 286 286 286 283 284 285 287 288 291 293 294 295 293 293 294 295 296 297
255 255 255 255 255 256 258 259 260 261 263 265 265 267 269 271 272 275 277 280 282 282 282 280 281 282 283 284 284 283 285 286 288 290 290 292 292 290 290 292 294 295 295
256 256 257 257 257 257 257 258 260 259 260 263 265 268 269 271 272 273 276 278 279 281 280 279 279 280 280 283 285 285 286 287 288 289 289 289 290 290 290 291 292 293 294
256 256 257 258 259 259 260 261 262 263 263 264 265 267 269 270 270 272 275 276 278 277 277 277 277 276 278 282 284 287 289 288 288 288 288 288 288 289 289 289 290 291 291
257 257 257 258 258 259 260 261 261 263 264 264 265 267 267 269 272 275 277 277 276 277 275 273 275 276 277 280 282 286 288 289 289 289 287 287 289 289 288 289 288 289 291
257 257 257 258 258 259 260 262 263 263 263 264 264 266 268 271 272 275 276 276 275 275 276 275 275 275 276 278 280 283 285 287 287 288 289 288 289 289 289 288 289 290 291
Height
5923 5921 5919 5917 5915 5913 5910 5908 5906 5904 5903 5901 5899 5898 5896 5895 5894 5893 5892 5891 5890 5890 5890 5890 5890 5890 5890 5890 5891 5891 5891 5891 5891 5892 5892 5892 5892 5892 5891 5891 5891 5891 5891
5924 5922 5920 5918 5916 5914 5912 5910 5908 5906 5904 5902 5901 5899 5897 5896 5894 5893 5892 5891 5890 5889 5889 5889 5889 5889 5889 5889 5889 5889 5889 5889 5890 5890 5890 5890 5890 5889 5889 5889 5888 5888 5888
5924 5923 5921 5920 5918 5916 5914 5912 5910 5907 5905 5904 5902 5900 5898 5897 5896 5894 5892 5891 5890 5889 5889 5889 5889 5889 5888 5888 5888 5888 5887 5887 5887 5887 5887 5887 5887 5887 5887 5886 5886 5885 5885
5925 5923 5922 5920 5919 5917 5915 5913 5911 5909 5907 5905 5903 5901 5900 5898 5896 5895 5893 5891 5890 5889 5889 5889 5889 5888 5887 5887 5887 5886 5886 5885 5885 5885 5885 5885 5884 5884 5884 5883 5882 5882 5882
5924 5923 5922 5920 5919 5917 5915 5913 5911 5910 5908 5906 5904 5902 5900 5899 5897 5895 5893 5892 5891 5890 5890 5889 5888 5887 5886 5886 5885 5884 5884 5883 5883 5882 5882 5882 5881 5881 5880 5880 5879 5878 5878
5923 5922 5921 5920 5919 5917 5915 5914 5912 5910 5908 5907 5905 5903 5901 5899 5898 5896 5894 5893 5891 5891 5890 5889 5888 5887 5886 5885 5884 5882 5882 5881 5880 5880 5879 5879 5878 5877 5877 5876 5875 5874 5873
5922 5921 5920 5919 5918 5916 5915 5913 5912 5910 5909 5907 5905 5903 5902 5900 5898 5897 5895 5894 5892 5891 5889 5888 5887 5886 5885 5884 5882 5881 5880 5879 5878 5878 5877 5876 5875 5874 5873 5872 5871 5870 5869
5920 5919 5918 5918 5916 5915 5914 5913 5911 5910 5908 5907 5905 5903 5902 5900 5898 5896 5895 5893 5892 5890 5889 5887 5886 5885 5884 5882 5881 5880 5878 5877 5876 5875 5874 5873 5871 5870 5869 5868 5867 5866 5865
5917 5917 5916 5915 5915 5913 5912 5911 5910 5908 5907 5906 5904 5903 5901 5899 5898 5896 5894 5892 5891 5889 5888 5886 5885 5883 5882 5881 5879 5877 5876 5874 5873 5872 5870 5869 5868 5867 5865 5864 5862 5862 5860
5914 5914 5913 5913 5912 5911 5910 5909 5908 5907 5906 5904 5903 5901 5900 5898 5896 5895 5893 5891 5889 5887 5886 5884 5883 5881 5879 5878 5877 5875 5874 5872 5870 5869 5867 5866 5864 5863 5861 5859 5858 5857 5856
5910 5910 5910 5910 5909 5909 5908 5907 5906 5905 5904 5902 5901 5899 5898 5896 5895 5893 5891 5889 5888 5886 5884 5882 5880 5878 5876 5875 5874 5873 5871 5870 5868 5866 5865 5863 5861 5859 5857 5855 5854 5852 5850
5905 5906 5906 5906 5906 5905 5905 5904 5903 5902 5901 5900 5899 5897 5895 5894 5892 5891 5889 5887 5885 5884 5882 5880 5877 5875 5873 5872 5871 5870 5868 5866 5865 5863 5861 5859 5857 5855 5853 5851 5849 5847 5845
5901 5901 5901 5902 5901 5901 5901 5900 5899 5899 5898 5897 5895 5894 5893 5891 5889 5887 5886 5884 5882 5881 5879 5877 5875 5873 5871 5869 5867 5866 5864 5863 5861 5859 5857 5855 5853 5850 5848 5846 5844 5842 5840
5895 5896 5896 5897 5896 5896 5896 5896 5895 5894 5893 5892 5891 5890 5889 5887 5885 5884 5882 5880 5879 5877 5875 5874 5872 5870 5868 5866 5864 5862 5860 5859 5857 5855 5853 5851 5848 5846 5843 5841 5839 5837 5834
5889 5889 5890 5890 5891 5891 5891 5890 5890 5889 5889 5888 5887 5886 5884 5883 5881 5879 5878 5876 5875 5873 5871 5869 5868 5866 5864 5862 5860 5858 5856 5855 5853 5851 5849 5846 5843 5841 5839 5836 5834 5831 5829
5881 5882 5883 5883 5884 5884 5884 5884 5884 5883 5882 5882 5881 5880 5879 5878 5876 5874 5873 5871 5870 5868 5866 5865 5863 5861 5859 5857 5856 5854 5852 5850 5848 5846 5844 5841 5838 5836 5833 5831 5828 5826 5823
5873 5874 5875 5876 5876 5877 5877 5877 5877 5876 5876 5875 5875 5874 5873 5872 5870 5868 5867 5866 5864 5862 5861 5859 5857 5855 5854 5852 5850 5848 5846 5844 5842 5840 5838 5835 5833 5830 5828 5825 5822 5820 5817
5864 5865 5866 5867 5868 5868 5869 5869 5869 5869 5869 5868 5868 5867 5866 5865 5863 5861 5860 5859 5857 5856 5854 5853 5851 5849 5848 5846 5844 5842 5840 5838 5836 5834 5831 5829 5826 5823 5821 5819 5816 5813 5811
5854 5855 5857 5858 5858 5859 5860 5861 5861 5861 5861 5860 5860 5859 5858 5857 5855 5854 5853 5851 5850 5848 5847 5845 5844 5842 5840 5839 5837 5835 5833 5831 5829 5827 5824 5822 5819 5816 5814 5811 5809 5806 5804
5843 5845 5846 5848 5849 5850 5850 5851 5851 5852 5852 5852 5851 5850 5850 5848 5847 5846 5845 5844 5842 5840 5839 5837 5836 5834 5832 5830 5829 5827 5825 5823 5821 5819 5816 5814 5811 5809 5806 5804 5801 5799 5796
5832 5834 5835 5837 5838 5839 5840 5841 5841 5842 5842 5842 5841 5840 5840 5839 5838 5838 5836 5835 5833 5832 5830 5829 5827 5825 5823 5821 5820 5818 5817 5814 5812 5810 5808 5805 5802 5800 5798 5796 5793 5790 5788
5821 5822 5824 5825 5827 5828 5829 5830 5831 5831 5831 5830 5830 5829 5828 5828 5828 5827 5826 5825 5824 5822 5820 5819 5818 5816 5814 5812 5811 5809 5807 5805 5803 5801 5799 5796 5793 5791 5789 5787 5784 5782 5779
5808 5810 5811 5813 5814 5815 5817 5818 5818 5818 5819 5819 5819 5818 5818 5818 5817 5816 5816 5815 5814 5812 5811 5809 5808 5807 5805 5804 5802 5800 5798 5795 5794 5791 5789 5787 5784 5782 5780 5778 5775 5773 5770
5796 5797 5799 5800 5802 5803 5804 5805 5805 5806 5807 5807 5807 5806 5805 5804 5804 5805 5805 5804 5804 5802 5801 5800 5798 5797 5796 5795 5793 5790 5788 5785 5783 5781 5779 5777 5775 5773 5770 5768 5766 5763 5761
5783 5784 5786 5787 5789 5790 5791 5792 5793 5794 5794 5794 5794 5792 5792 5791 5791 5792 5792 5793 5793 5792 5790 5789 5787 5787 5786 5784 5782 5780 5778 5775 5773 5770 5768 5766 5764 5762 5759 5757 5755 5753 5750
5769 5770 5772 5774 5775 5777 5778 5779 5780 5780 5781 5781 5780 5780 5780 5780 5780 5781 5781 5781 5781 5780 5779 5777 5776 5775 5774 5773 5771 5769 5767 5764 5762 5760 5758 5756 5753 5751 5749 5746 5744 5742 5739